Location: Berlin
(52.5171°N, 13.3759°E)
Time: 15:10:54
(UTC+01:00)

N. Korean satellite - Visible Passes

Search period start: 19 November 2017 00:00
Search period end: 29 November 2017 00:00
Orbit: 460 x 515 km, 97.2° (Epoch: 18 November)

Date Brightness Start Highest point End Pass type
(mag) Time Alt. Az. Time Alt. Az. Time Alt. Az.
19 Nov 9.9 05:55:11 10° NE 05:57:26 15° E 05:59:42 10° SE visible
19 Nov 7.0 18:09:24 10° S 18:12:53 61° W 18:16:27 10° NNW visible
20 Nov 6.4 17:45:53 10° SSE 17:49:24 73° ENE 17:53:00 10° N visible
20 Nov 10.0 19:22:13 10° WSW 19:23:26 11° W 19:24:39 10° WNW visible
21 Nov 8.1 06:40:45 10° NNE 06:44:20 43° E 06:47:56 10° S visible
21 Nov 6.9 17:22:39 10° SE 17:25:59 40° ENE 17:29:23 10° N visible
21 Nov 9.3 18:57:03 10° SW 18:59:42 19° W 19:02:23 10° NW visible
22 Nov 9.2 06:17:34 10° NE 06:20:43 25° E 06:23:54 10° SSE visible
22 Nov 7.6 16:59:44 10° ESE 17:02:38 24° ENE 17:05:36 10° N visible
22 Nov 8.3 18:32:48 10° SSW 18:36:03 33° W 18:39:22 10° NNW visible
23 Nov 9.9 05:54:45 10° NE 05:57:03 15° E 05:59:21 10° SE visible
23 Nov 7.0 18:08:57 10° S 18:12:27 61° WSW 18:16:04 10° NNW visible
24 Nov 6.4 17:45:25 10° SSE 17:48:57 73° ENE 17:52:36 10° N visible
24 Nov 10.0 19:21:40 10° WSW 19:22:59 12° W 19:24:19 10° WNW visible
25 Nov 8.1 06:40:18 10° NNE 06:43:55 43° E 06:47:32 10° S visible
25 Nov 7.0 17:22:10 10° SE 17:25:32 40° ENE 17:28:58 10° N visible
25 Nov 9.3 18:56:33 10° SW 18:59:14 20° W 19:01:59 10° NW visible
26 Nov 9.2 06:17:06 10° NE 06:20:17 25° E 06:23:28 10° SSE visible
26 Nov 7.7 16:59:13 10° ESE 17:02:10 24° ENE 17:05:10 10° N visible
26 Nov 8.3 18:32:17 10° SSW 18:35:34 34° W 18:38:56 10° NNW visible
27 Nov 9.9 05:54:17 10° NE 05:56:36 15° E 05:58:54 10° SE visible
27 Nov 8.2 16:36:42 10° E 16:38:53 15° ENE 16:41:06 10° NNE visible
27 Nov 7.0 18:08:25 10° S 18:11:58 62° W 18:15:37 10° NNW visible
28 Nov 6.9 07:03:12 10° NNE 07:07:00 78° ESE 07:10:46 10° S visible
28 Nov 6.4 17:44:52 10° SSE 17:48:27 72° ENE 17:52:08 10° N visible
28 Nov 10.0 19:21:03 10° WSW 19:22:29 12° W 19:23:55 10° WNW visible
